Meadville, PA

1:01 AM EST on February 21, 2017 (GMT -0500)
Port Meadville

Weather History for KGKJ - August, 2014

Change the Weather History Date:

Wednesday, August 27, 2014

  Actual Average Record
Temperature  
Mean Temperature 70 °F -  
Max Temperature 78 °F 80 °F 97 °F (1948)
Min Temperature 61 °F 55 °F 41 °F (1958)
Cooling Degree Days 5    
Growing Degree Days 20 (Base 50)    
Moisture  
Dew Point 64 °F    
Average Humidity 81    
Maximum Humidity 93    
Minimum Humidity 64    
Precipitation  
Precipitation 0.00 in - - ()
Sea Level Pressure  
Sea Level Pressure 30.08 in    
Wind  
Wind Speed 4 mph (WNW)    
Max Wind Speed 10 mph    
Max Gust Speed -    
Visibility 8 miles    
Events Fog , Rain    
Averages and records for this station are not official NWS values.
T = Trace of Precipitation, MM = Missing Value Source: NWS Daily Summary

Daily Weather History Graph

Daily Weather History Graph

Search for Another Location

Airport or City:

Trip Planner

Search our weather history database for the weather conditions in past years. The results will help you decide how hot, cold, wet, or windy it might be!

Date:

Astronomy

Aug. 27, 2014 Rise Set
Actual Time 6:41 AM EDT 8:02 PM EDT
Civil Twilight 6:12 AM EDT 8:30 PM EDT
Nautical Twilight 5:38 AM EDT 9:05 PM EDT
Astronomical Twilight 5:01 AM EDT 9:42 PM EDT
Moon 8:38 AM EDT (8/27) 8:51 PM EDT (8/27)
Length of Visible Light 14h 18m
Length of Day
13h 20m
Waxing Crescent, 4% of the Moon is Illuminated
Aug 27
Waxing Crescent
Sep 2
First Quarter
Sep 8
Full
Sep 15
Last Quarter
Sep 24
New

Hourly Weather History & Observations

Time (EDT) Temp. Dew Point Humidity Pressure Visibility Wind Dir Wind Speed Gust Speed Precip Events Conditions
12:53 AM 72.0 °F 66.0 °F 81% 30.07 in 10.0 mi SW 4.6 mph - N/A   Clear
1:53 AM 71.1 °F 66.0 °F 84% 30.07 in 10.0 mi SSW 4.6 mph - N/A   Clear
2:53 AM 70.0 °F 66.0 °F 87% 30.06 in 9.0 mi WSW 4.6 mph - N/A   Scattered Clouds
3:33 AM 70.0 °F 66.9 °F 90% 30.09 in 10.0 mi Calm Calm - 0.00 in Rain Light Rain
3:53 AM 70.0 °F 66.9 °F 90% 30.07 in 8.0 mi Calm Calm - 0.00 in   Overcast
4:33 AM 70.0 °F 66.0 °F 87% 30.10 in 10.0 mi West 5.8 mph - N/A   Scattered Clouds
4:53 AM 69.1 °F 66.0 °F 90% 30.07 in 10.0 mi West 3.5 mph - N/A   Scattered Clouds
5:01 AM 69.1 °F 66.0 °F 90% 30.10 in 10.0 mi WNW 3.5 mph - N/A   Mostly Cloudy
5:43 AM 69.1 °F 66.0 °F 90% 30.10 in 10.0 mi NW 3.5 mph - N/A   Overcast
5:53 AM 69.1 °F 66.0 °F 90% 30.07 in 10.0 mi Calm Calm - N/A   Mostly Cloudy
6:02 AM 69.1 °F 66.0 °F 90% 30.10 in 10.0 mi Calm Calm - N/A   Mostly Cloudy
6:18 AM 68.0 °F 64.9 °F 90% 30.10 in 8.0 mi West 4.6 mph - N/A   Mostly Cloudy
6:53 AM 69.1 °F 66.9 °F 93% 30.08 in 6.0 mi Calm Calm - N/A   Overcast
7:10 AM 69.1 °F 66.9 °F 93% 30.10 in 1.0 mi Calm Calm - N/A   Overcast
7:17 AM 69.1 °F 66.9 °F 93% 30.10 in 0.5 mi WNW 3.5 mph - N/A Fog Fog
7:37 AM 69.1 °F 66.9 °F 93% 30.10 in 0.8 mi WNW 4.6 mph - N/A   Overcast
7:53 AM 69.1 °F 66.9 °F 93% 30.08 in 0.8 mi Calm Calm - N/A   Overcast
8:03 AM 69.1 °F 66.9 °F 93% 30.10 in 1.5 mi Calm Calm - N/A   Overcast
8:18 AM 69.1 °F 66.9 °F 93% 30.10 in 2.5 mi Calm Calm - N/A   Overcast
8:28 AM 70.0 °F 66.9 °F 90% 30.10 in 3.0 mi Calm Calm - N/A   Overcast
8:53 AM 70.0 °F 66.9 °F 90% 30.08 in 3.0 mi Calm Calm - N/A   Overcast
9:53 AM 70.0 °F 66.9 °F 90% 30.09 in 3.0 mi WNW 3.5 mph - N/A   Overcast
10:53 AM 73.0 °F 66.9 °F 81% 30.08 in 10.0 mi Calm Calm - N/A   Mostly Cloudy
11:53 AM 75.0 °F 66.0 °F 73% 30.06 in 10.0 mi WSW 4.6 mph - N/A   Mostly Cloudy
12:24 PM 77.0 °F 68.0 °F 74% 30.10 in 10.0 mi West 6.9 mph - N/A   Scattered Clouds
12:53 PM 77.0 °F 66.9 °F 71% 30.06 in 10.0 mi WNW 9.2 mph - N/A   Scattered Clouds
1:53 PM 77.0 °F 66.0 °F 69% 30.06 in 10.0 mi WNW 8.1 mph - N/A   Mostly Cloudy
3:12 PM 77.0 °F 64.0 °F 64% 30.07 in 10.0 mi NW 10.4 mph - N/A   Scattered Clouds
3:40 PM 75.0 °F 63.0 °F 66% 30.08 in 10.0 mi NW 5.8 mph - N/A   Mostly Cloudy
3:53 PM 75.0 °F 62.1 °F 64% 30.04 in 10.0 mi NW 6.9 mph - N/A   Overcast
4:28 PM 73.9 °F 61.0 °F 64% 30.07 in 10.0 mi NW 9.2 mph - N/A   Overcast
4:53 PM 73.9 °F 62.1 °F 66% 30.05 in 10.0 mi NW 9.2 mph - N/A   Mostly Cloudy
5:32 PM 73.9 °F 62.1 °F 66% 30.07 in 10.0 mi NNW 9.2 mph - N/A   Mostly Cloudy
5:45 PM 73.0 °F 61.0 °F 66% 30.07 in 10.0 mi NNW 9.2 mph - N/A   Scattered Clouds
5:53 PM 73.0 °F 61.0 °F 66% 30.05 in 10.0 mi NNW 8.1 mph - N/A   Partly Cloudy
6:53 PM 69.1 °F 59.0 °F 70% 30.04 in 10.0 mi NNW 4.6 mph - N/A   Clear
7:53 PM 66.0 °F 57.9 °F 75% 30.05 in 10.0 mi Variable 5.8 mph - N/A   Clear
8:53 PM 64.9 °F 57.9 °F 78% 30.06 in 10.0 mi NW 4.6 mph - N/A   Clear
9:53 PM 64.0 °F 57.0 °F 78% 30.08 in 10.0 mi North 5.8 mph - N/A   Clear
10:53 PM 63.0 °F 55.9 °F 78% 30.08 in 10.0 mi NNW 5.8 mph - N/A   Clear
11:53 PM 61.0 °F 54.0 °F 78% 30.09 in 10.0 mi North 4.6 mph - N/A   Clear